Weather History for St. Charles, MO

Change the Weather History Date:

Sunday, January 26, 2014

  Actual Average (KSTL) Record (KSTL)
Temperature  
Mean Temperature 40 °F 32 °F  
Max Temperature 54 °F 41 °F 72 °F (1890)
Min Temperature 23 °F 24 °F -8 °F (1936)
Degree Days  
Heating Degree Days 24 33  
Month to date heating degree days 866  
Since 1 July heating degree days 2631  
Cooling Degree Days 0 0  
Month to date cooling degree days 0  
Year to date cooling degree days 0  
Moisture  
Dew Point 23 °F    
Average Humidity 51    
Maximum Humidity 69    
Minimum Humidity 31    
Precipitation  
Precipitation 0.00 in 0.07 in 2.13 in (1967)
Month to date precipitation 2.03  
Year to date precipitation 2.03  
Snow  
Snow 0.00 in 0.20 in 2.60 in (1961)
Month to date snowfall 4.7  
Since 1 July snowfall 9.8  
Snow Depth -    
Sea Level Pressure  
Sea Level Pressure 29.71 in    
Wind  
Wind Speed 13 mph (West)    
Max Wind Speed 32 mph    
Max Gust Speed 51 mph    
Visibility 10 miles    
Events Snow    
T = Trace of Precipitation, MM = Missing Value Source: NWS Daily Summary

Daily Weather History Graph

Daily Weather History Graph

Search for Another Location

Airport:

Trip Planner

Search our weather history database for the weather conditions in past years. The results will help you decide how hot, cold, wet, or windy it might be!

Date:

Astronomy

Jan. 26, 2014 Rise Set
Actual Time 7:12 AM CST 5:16 PM CST
Civil Twilight 6:44 AM CST 5:44 PM CST
Nautical Twilight 6:12 AM CST 6:16 PM CST
Astronomical Twilight 5:40 AM CST 6:48 PM CST
Moon 2:50 AM CST (1/26) 1:05 PM CST (1/26)
Length of Visible Light 11h 00m
Length of Day
10h 03m
Waning Crescent, 23% of the Moon is Illuminated
Jan 26
Waning Crescent
Jan 30
New
Feb 6
First Quarter
Feb 14
Full
Feb 22
Last Quarter

Hourly Weather History & Observations

Time (CST) Temp. Windchill Dew Point Humidity Pressure Visibility Wind Dir Wind Speed Gust Speed Precip Events Conditions
12:54 AM 27.0 °F 19.5 °F 14.0 °F 58% 29.86 in 10.0 mi SE 6.9 mph - N/A   Overcast
1:54 AM 28.0 °F 18.6 °F 7.0 °F 41% 29.78 in 10.0 mi South 10.4 mph - N/A   Overcast
2:54 AM 30.9 °F 20.2 °F 3.0 °F 31% 29.70 in 10.0 mi South 15.0 mph - N/A   Scattered Clouds
3:54 AM 32.0 °F 23.0 °F 3.9 °F 31% 29.66 in 10.0 mi South 11.5 mph - N/A   Overcast
4:54 AM 33.1 °F 24.9 °F 10.9 °F 40% 29.62 in 10.0 mi South 10.4 mph - N/A   Partly Cloudy
5:54 AM 33.1 °F 26.9 °F 16.0 °F 50% 29.62 in 10.0 mi Variable 6.9 mph - N/A   Clear
6:54 AM 37.9 °F 32.1 °F 24.1 °F 57% 29.62 in 10.0 mi SSW 8.1 mph - N/A   Scattered Clouds
7:54 AM 37.0 °F 29.8 °F 25.0 °F 62% 29.62 in 10.0 mi SW 10.4 mph - N/A   Scattered Clouds
8:54 AM 44.1 °F 39.0 °F 28.0 °F 53% 29.63 in 10.0 mi West 9.2 mph - N/A   Clear
9:54 AM 50.0 °F - 30.9 °F 48% 29.61 in 10.0 mi West 20.7 mph - N/A   Clear
10:54 AM 52.0 °F - 32.0 °F 47% 29.62 in 10.0 mi West 21.9 mph 28.8 mph N/A   Clear
11:54 AM 53.1 °F - 32.0 °F 45% 29.61 in 10.0 mi West 21.9 mph 28.8 mph N/A   Clear
12:54 PM 53.1 °F - 32.0 °F 45% 29.59 in 10.0 mi WNW 16.1 mph - N/A   Clear
1:54 PM 54.0 °F - 32.0 °F 43% 29.57 in 10.0 mi WNW 17.3 mph - N/A   Clear
2:54 PM 54.0 °F - 32.0 °F 43% 29.57 in 10.0 mi WNW 10.4 mph - N/A   Clear
3:54 PM 51.1 °F - 30.9 °F 46% 29.58 in 10.0 mi West 10.4 mph - N/A   Clear
4:54 PM 51.1 °F - 30.0 °F 44% 29.61 in 10.0 mi WNW 11.5 mph - N/A   Clear
5:54 PM 46.9 °F - 28.0 °F 48% 29.64 in 10.0 mi WSW 5.8 mph - N/A   Clear
6:54 PM 46.0 °F 43.1 °F 28.9 °F 51% 29.63 in 10.0 mi West 5.8 mph - N/A   Clear
7:54 PM 46.0 °F 43.1 °F 28.9 °F 51% 29.65 in 10.0 mi West 5.8 mph - N/A   Clear
8:54 PM 43.0 °F 32.2 °F 28.9 °F 58% 29.74 in 10.0 mi NNW 32.2 mph 50.6 mph N/A   Mostly Cloudy
9:01 PM 41.0 °F 30.2 °F 28.0 °F 60% 29.76 in 10.0 mi NNW 27.6 mph 47.2 mph N/A   Scattered Clouds
9:37 PM 35.1 °F 23.0 °F 21.9 °F 59% 29.85 in 10.0 mi North 24.2 mph 43.7 mph N/A   Scattered Clouds
9:54 PM 34.0 °F 23.4 °F 21.9 °F 61% 29.88 in 10.0 mi North 17.3 mph 35.7 mph N/A   Mostly Cloudy
10:16 PM 32.0 °F 18.1 °F 21.9 °F 66% 29.91 in 10.0 mi North 27.6 mph 35.7 mph N/A   Overcast
10:54 PM 27.0 °F 12.5 °F 18.0 °F 69% 29.98 in 8.0 mi North 23.0 mph 29.9 mph 0.00 in Snow Light Snow
11:06 PM 27.0 °F 11.3 °F 15.1 °F 61% 29.99 in 10.0 mi North 27.6 mph 36.8 mph 0.00 in   Overcast
11:54 PM 23.0 °F 7.2 °F 7.0 °F 50% 30.06 in 10.0 mi NNW 23.0 mph 40.3 mph 0.00 in   Overcast